NOAA 16 DEB, 41296

Orbit data source: Space-Track

NOAA 16 DEB, 41296 is space debris in SSO originally from a launch on Thu, 21 Sep 2000 UTC launched from the Air Force Western Test Range (AFWTR). Debris objects in space refer to the collection of defunct objects orbiting the Earth. Examples of debris include non-operational satellites, rocket bodies, and fragments generated from explosions, collisions, or faulty payload assembly.

Loading next visibility...
Identifier
41296, 2000-055GY
Orbit
SSO
Country
Flag of USUS
Related business
Manufacturer
Unknown
Mission
Spacecraft
Bus & Motor
Unknown
Mass
Unknown
Launch date (UTC)
2000-09-21 (25 years ago)
Launch vehicle
Unknown
Launch site
Air Force Western Test Range (AFWTR)
Object type
Payload
Rocket body
Debris
Shape & HBR
Unknown shape, 0.1 m
Radar Cross Section
Small (<0.1 m²)

Expand to show TLE details & history
Last TLE update: 12 hours ago

TLE from 12 hours ago
0 NOAA 16 DEB
1 41296U 00055GY  26073.61076546  .00003321  00000-0  15695-2 0  9992
2 41296  98.7171 132.3253 0026780  84.3780 276.0449 14.20203094525525
Epoch: 2026-03-14T14:39Z
TLE epoch observation values (Epoch: 2026-03-14T14:39:30.135Z)
Latitude
-0.00009°
Longitude
100.22028°
Altitude
825.6 km
Speed
7.441 km/s
True Right ascension
08h 49m 18s
True Declination
0° 00' 00"
Sunlit
Object was in full shadow at epoch
Visualization orbit readout
Latitude
Unknown
Longitude
Unknown
Altitude
Unknown
Speed
Unknown
Apparent Right ascension
Unknown
Apparent Declination
Unknown
Sunlit
N/A
Visualization observer readout
Local Sidereal Time
07:35:49
Azimuth
Unknown
Elevation
Unknown
Doppler factor
Unknown
Orbital elements
Apogee altitude
841.106 km
Perigee altitude
802.543 km
Semi-major axis
7,199.962 km
Eccentricity
0.00268
Inclination
98.7171°
RAAN
132.3253°
Arg. of periapsis
84.378°
True anomaly
275.73962°
Mean anomaly
276.0449°
Eccentric anomaly
275.89227°
Mean motion
3.55261 °/min
Orbital period
101.33 mins
BSTAR
0.0015695
Loading maneuver chart data...
Computing Atmospheric mass density...
Loading historical data...
Loading historical data...
Loading historical data...
Loading historical data...
Loading historical data...
Loading historical data...
Loading historical data...

Documentation

Showing up to 5 results
|